Regional Weather Roundup
Issued by NWS

Home | Current Version | Previous Version | Text Only | Print | Product List | Glossary On
Versions: 1 2 3 4 5 6 7 8 9 10 11 12 13 14 15 16 17 18 19 20 21 22 23 24 25 26 27 28 29 30 31 32 33 34 35 36 37 38 39 40 41 42 43 44 45 46 47 48 49 50
000
ASUS43 KMKX 010600
RWRWI

WISCONSIN REGIONAL WEATHER ROUNDUP
NATIONAL WEATHER SERVICE MILWAUKEE/SULLIVAN WI
100 AM CDT SAT AUG 01 2015

NOTE: "FAIR" INDICATES FEW OR NO CLOUDS BELOW 12,000 FEET WITH NO
SIGNIFICANT WEATHER AND/OR OBSTRUCTIONS TO VISIBILITY.

WIZ001-002-006>008-014>016-023>028-010700-
NORTHWEST WISCONSIN

CITY           SKY/WX    TMP DP  RH WIND       PRES   REMARKS
SUPERIOR ARPT  CLEAR     61  52  71 W7        29.94S
ASHLAND        CLEAR     56  52  86 SW5       29.93S
6HR MIN TEMP:  52; 6HR MAX TEMP:  70; 6HR PCP: TRACE;

HAYWARD        CLEAR     54  50  86 SW3       29.97S
6HR MIN TEMP:  53; 6HR MAX TEMP:  77;

SIREN          CLEAR     59  51  74 NW3       29.99R
CUMBERLAND     CLEAR     55  52  88 W6        29.99S
RICE LAKE      CLEAR     59  53  78 CALM      30.00S
CHETEK         CLEAR     58  55  88 CALM      29.99S
LADYSMITH      CLEAR     60  53  77 W3        29.99S
EAU CLAIRE     NOT AVBL
MENOMONIE      CLEAR     64  55  71 W6        29.99S
NEW RICHMOND   PTCLDY    63  55  75 W6        30.00S
OSCEOLA        PTCLDY    60  59  96 CALM      30.02S
$$

WIZ003>005-009-010-017-018-010700-
NORTH CENTRAL WISCONSIN

CITY           SKY/WX    TMP DP  RH WIND       PRES   REMARKS
MANITOWISH WTR FOG       53  53 100 CALM      29.94S VSB 1/4
ARBOR VITAE    CLEAR     57  55  91 CALM      29.94S
WOODRUFF       CLEAR     57  55  91 CALM      29.94S
RHINELANDER    CLEAR     55  53  93 W7        29.96S
6HR MIN TEMP:  53; 6HR MAX TEMP:  65;

EAGLE RIVER    PTCLDY    50  50 100 SW5       29.94S FOG
LAND O LAKES   PTCLDY    55  54  97 CALM      29.94S
PHILLIPS       CLEAR     57  52  82 CALM      29.96S
6HR MIN TEMP:  57; 6HR MAX TEMP:  67;

TOMAHAWK       CLEAR     53  52  95 CALM      29.96S
MEDFORD        PTCLDY    59  52  76 W6        29.98S
MERRILL        NOT AVBL
$$

WIZ029-030-035-036-043>047-010700-
CENTRAL WISCONSIN

CITY           SKY/WX    TMP DP  RH WIND       PRES   REMARKS
WAUSAU         CLEAR     63  54  72 NW9       29.95S
6HR MIN TEMP:  63; 6HR MAX TEMP:  71; 6HR PCP: TRACE;

MOSINEE        CLEAR     59  54  82 W6        29.98S
MARSHFIELD     CLEAR     60  50  69 W5        29.98S
6HR MIN TEMP:  60; 6HR MAX TEMP:  76;

STEVENS POINT  CLEAR     64  51  64 W6        29.98S
WAUPACA        CLEAR     60  56  85 CALM      29.96S
WAUTOMA        NOT AVBL
WISC RAPIDS    CLEAR     61  51  70 W3        29.99S
6HR MIN TEMP:  61; 6HR MAX TEMP:  77;

CAMP DOUGLAS   NOT AVBL
$$

WIZ011>013-019>022-031-037>040-048>050-010700-
NORTHEAST WISCONSIN

CITY           SKY/WX    TMP DP  RH WIND       PRES   REMARKS
ANTIGO         CLEAR     56  54  95 W5        29.96S
SHAWANO        MOCLDY    65  56  74 SW5       29.94S
OCONTO         PTCLDY    59  55  89 W5        29.91S
STURGEON BAY   MOCLDY    63  54  72 SW7       29.93S
6HR MIN TEMP:  63; 6HR MAX TEMP:  73;

GREEN BAY      CLOUDY    64  56  75 W7        29.93S
6HR MIN TEMP:  61; 6HR MAX TEMP:  78; 6HR PCP: TRACE;

MANITOWOC      NOT AVBL
APPLETON       PTCLDY    64  52  63 W9        29.96S
CLINTONVILLE   CLEAR     61  54  77 W5        29.94S
OSHKOSH        CLEAR     65  52  62 W3        29.96S
6HR MIN TEMP:  64; 6HR MAX TEMP:  78;

$$

WIZ032>034-041-042-053>061-010700-
SOUTHWEST WISCONSIN

CITY           SKY/WX    TMP DP  RH WIND       PRES   REMARKS
LA CROSSE      CLEAR     65  58  78 S3        30.00S
6HR MIN TEMP:  64; 6HR MAX TEMP:  80;

SPARTA         CLEAR     53  51  92 CALM      30.01S
VIROQUA        PTCLDY    61  55  81 SW6       30.03S
BOSCOBEL       CLEAR     60  57  89 SW5       30.03R
6HR MIN TEMP:  59; 6HR MAX TEMP:  82;

PRAIRIE DU CHI CLEAR     62  56  80 CALM      30.03S
PLATTEVILLE    CLEAR     63  57  81 W3        30.04R
$$

WIZ056-057-062-063-064-067-068-010700-
SOUTH CENTRAL WISCONSIN

CITY           SKY/WX    TMP DP  RH WIND       PRES   REMARKS
REEDSBURG      CLEAR     57  54  89 CALM      30.00S
BARABOO/DELLS  CLEAR     60  50  71 CALM      30.00S
LONE ROCK      NOT AVBL
MINERAL POINT  CLEAR     63  54  72 W3        30.04R
MADISON        CLEAR     67  51  56 W6        29.99S
6HR MIN TEMP:  67; 6HR MAX TEMP:  78;

MIDDLETON      CLEAR     58  54  86 CALM      30.01S
WATERTOWN      CLEAR     59  55  87 CALM      29.99R
MONROE         CLEAR     64  52  63 W12       30.02S
JANESVILLE     CLEAR     61  52  72 W3        30.00R
$$

WIZ051-052-058>065-066-070>072-010700-
SOUTHEAST WISCONSIN

CITY           SKY/WX    TMP DP  RH WIND       PRES   REMARKS
MILWAUKEE      PTCLDY    69  51  52 W5        29.97R
6HR MIN TEMP:  68; 6HR MAX TEMP:  81;

WAUKESHA       CLEAR     63  50  63 W7        29.99S
MILWAUKEE/TIMM CLEAR     64  50  59 W5        29.98S
RACINE         CLEAR     66  51  58 W6        29.99S
6HR MIN TEMP:  66; 6HR MAX TEMP:  80;

BURLINGTON     CLEAR     62  50  65 W8        29.98F
KENOSHA        CLEAR     63  52  67 NW7       29.98S
6HR MIN TEMP:  61; 6HR MAX TEMP:  79;

FOND DU LAC    PTCLDY    62  53  72 SW5       29.97S
6HR MIN TEMP:  62; 6HR MAX TEMP:  78;

SHEBOYGAN      PTCLDY    63  55  75 W6        29.95S
6HR MIN TEMP:  63; 6HR MAX TEMP:  78; 6HR PCP: TRACE;

WEST BEND      CLEAR     63  50  63 W6        29.97S
JUNEAU         CLEAR     58  53  82 SW3       30.00R
$$

LSZ147-162-010700-
LAKE SUPERIOR

STATION/POSITION TIME  TEMP    WIND        PRES    WAVE
                       AIR SEA DIR/SP/G            HT/PER
                 (UTC) (F)     (DEG/KT/KT) (MB)    (FT/S)
W MID LAKE BUOY  0450   59 53  270/ 14/ 16 1010.9F   1/ 3
DEVILS ISLAND    0500   64     220/ 12/ 12 1012.3F
PORT WING        0500   65     200/  6/ 11 1013.2R
SAXON HARBOR     0540   59                 1012.5R
$$

LMZ867-665-643>646-010700-
LAKE MICHIGAN

STATION/POSITION TIME  TEMP    WIND        PRES    WAVE
                       AIR SEA DIR/SP/G            HT/PER
                 (UTC) (F)     (DEG/KT/KT) (MB)    (FT/S)
CHAMBERS ISLAND  0500   68     230/  7/ 12 1012.5R
N MID LAKE BUOY  0450   69 68  280/ 12/ 14 1011.0S   1/ 3
NORTHPORT PIER   0500   69     270/  6/ 13 1011.9S
SISTER BAY       0414   70     300/ 16/ 19   N/A
ALGOMA LAKESHORE 0512          280/  3/  5   N/A
KEWAUNEE LAKESHO 0500   65     290/  4/  4 1012.6F
SHEBOYGAN LAKESH 0500   71     280/  8/ 10 1014.0S
PORT WASHINGTON  0500   70     280/  4/  8 1014.9
ATWATER BUOY     0500   70 68  280/  6/  8 1016.0R
MILWAUKEE LAKESH 0500   72     310/  4/  7   N/A
KENOSHA   LAKESH 0500   71     280/ 10/ 13 1014.6R
$$

TC  - TEMPERATURE IN CELSIUS
VSB - VISIBILITY IN STATUTE MILES
WCI - WIND CHILL INDEX
HX  - HEAT INDEX




USA.gov is the U.S. government's official web portal to all federal, state and local government web resources and services.